This is the latest recevied weather packets stored in our database for station/object N5DGC. If no packets are shown the sender has not sent any weather packets the latest 10 day(s).
| Time | Temp. | Humidity | Pressure | Rain* | Wind** | Luminosity | Snow |
|---|---|---|---|---|---|---|---|
| 1787873007 | 37.78° C | 16% | 1239.8 hPa | 0 mm | - | 129 W/m² | - |
| 1787872703 | 37.22° C | 17% | 1240 hPa | 0 mm | - | 317 W/m² | - |
| 1787872399 | 37.22° C | 16% | 1240 hPa | 0 mm | - | 403 W/m² | - |
| 1787872099 | 37.78° C | 16% | 1239.7 hPa | 0 mm | - | 455 W/m² | - |
| 1787871793 | 37.78° C | 16% | 1240.1 hPa | 0 mm | - | 517 W/m² | - |
| 1787871488 | 37.78° C | 16% | 1240.1 hPa | 0 mm | - | 198 W/m² | - |
| 1787871184 | 37.78° C | 16% | 1240.2 hPa | 0 mm | - | 418 W/m² | - |
| 1787870883 | 37.78° C | 16% | 1240.3 hPa | 0 mm | - | 585 W/m² | - |
| 1787870578 | 38.89° C | 15% | 1240.2 hPa | 0 mm | - | 562 W/m² | - |
| 1787870274 | 38.89° C | 15% | 1240.3 hPa | 0 mm | - | 608 W/m² | - |
| 1787869974 | 38.89° C | 15% | 1240.3 hPa | 0 mm | - | 643 W/m² | - |
| 1787869668 | 38.89° C | 15% | 1240.3 hPa | 0 mm | - | 646 W/m² | - |
| 1787869368 | 38.33° C | 15% | 1240.3 hPa | 0 mm | - | 638 W/m² | - |
| 1787869067 | 38.33° C | 16% | 1240.5 hPa | 0 mm | - | 489 W/m² | - |
| 1787868766 | 37.78° C | 16% | 1240.5 hPa | 0 mm | - | 588 W/m² | - |
| 1787868465 | 37.78° C | 16% | 1240.5 hPa | 0 mm | - | 631 W/m² | - |
| 1787868164 | 37.78° C | 16% | 1240.5 hPa | 0 mm | - | 663 W/m² | - |
| 1787867860 | 36.67° C | 18% | 1240.7 hPa | 0 mm | - | 673 W/m² | - |
| 1787867556 | 36.67° C | 18% | 1240.9 hPa | 0 mm | - | 496 W/m² | - |
| 1787867255 | 37.78° C | 17% | 1240.9 hPa | 0 mm | - | 361 W/m² | - |
| 1787866951 | 37.78° C | 17% | 1241 hPa | 0 mm | - | 600 W/m² | - |
| 1787866646 | 37.22° C | 17% | 1240.9 hPa | 0 mm | - | 699 W/m² | - |
| 1787866344 | 37.22° C | 17% | 1241.1 hPa | 0 mm | - | 688 W/m² | - |
| 1787866039 | 36.67° C | 18% | 1241.2 hPa | 0 mm | - | 729 W/m² | - |
| 1787865735 | 37.22° C | 18% | 1241.1 hPa | 0 mm | - | 739 W/m² | - |
* Rain latest hour (hover to see other rain measurements)
** Current wind speed in m/s (hover to see current wind gust speed)